[[{"header":{"parameterUnit":"m.s-1","parameterCategory":2,"la1":30.2991,"la2":30.254,"lo1":-89.0895,"lo2":-89.0444,"dy":0.0017,"dx":0.0017,"nx":28,"ny":28,"refTime":"2023-10-10T21:00:00:Z","depth":"0","parameterNumber":2,"parameterNumberName":"U-component_of_CURRENTS"},"data":[0,0,0,0,0,0,0,0,0,0,0,0,0,0,0,0,0,0,0,0,0,0,0,0,0,0,0,0,0,0,0,0,0,0,0,0,0,0,0,0,0,0,0,0,0,0,0,0,0,0,0,0,0,0,0,0,0,0,0.1627,0.1626,0,0.1506,0.1504,0.1503,0.1449,0.1449,0.1449,0.1449,0.1336,0.1333,0.133,0,0,0,0,0,0,0,0,0,0,0,0,0,0.1706,0.1705,0.1627,0.1626,0.1624,0.1506,0.1504,0.1503,0.1449,0.1449,0.1449,0.1449,0.1337,0.1334,0.133,0,0,0,0,0,0,0,0,0,0,0,0,0,0.1638,0.1705,0.1628,0.1582,0.1577,0.1506,0.1504,0.1502,0.1449,0.1449,0.1449,0.1449,0.1339,0.1334,0.133,0.1299,0,0,0.1315,0.1313,0,0,0,0,0,0,0,0,0.1642,0.1635,0.1591,0.1585,0.1579,0.1492,0.149,0.1434,0.1449,0.1498,0.1449,0.1449,0.1389,0.138,0.1358,0.1294,0.1289,0.1315,0.1312,0.131,0.1309,0,0,0,0,0,0,0,0.1647,0.1639,0.158,0.1589,0.1582,0.1531,0.1523,0.1479,0.1445,0.1494,0.149,0.1475,0.1386,0.1362,0.1355,0.1287,0.1315,0.1311,0.1308,0.1306,0.1269,0.127,0,0,0,0,0,0,0.1665,0.1644,0.1584,0.1576,0.161,0.153,0.1521,0.1521,0.1445,0.1434,0.1475,0.1473,0.137,0.136,0.1351,0.1458,0.131,0.1306,0.1303,0.1267,0.1269,0.1271,0,0,0,0,0,0,0.1668,0.1662,0.1589,0.1606,0.1593,0.153,0.1529,0.1518,0.1501,0.143,0.1419,0.147,0.137,0.1357,0.1327,0.1448,0.1304,0.13,0.1265,0.1268,0.127,0.1578,0,0,0,0,0,0,0.1671,0.1664,0.1675,0.1608,0.1593,0.1579,0.1528,0.1516,0.149,0.1487,0.1422,0.1411,0.1369,0.1334,0.1322,0.1439,0.1296,0.1263,0.1266,0.1269,0.1566,0.1591,0.1612,0,0,0,0,0,0.1674,0.1736,0.1677,0.1669,0.161,0.158,0.1569,0.1523,0.1491,0.1503,0.1449,0.1414,0.1348,0.1331,0.1317,0.1435,0.1261,0.1265,0.1269,0.1555,0.1586,0.1612,0,0,0,0,0,0,0.1823,0.1733,0.1668,0.1708,0.1643,0.1572,0.1593,0.153,0.1493,0.1498,0.1416,0.1403,0.1442,0.1358,0.1341,0.1425,0.1306,0.1308,0.1529,0.1557,0.158,0.177,0.1292,0,0,0,0,0,0.1842,0.1839,0.1742,0.1773,0.1749,0.1656,0.1638,0.1595,0.1547,0.1531,0.1471,0.1428,0.1443,0.1433,0.1408,0.1426,0.1443,0.1491,0.1515,0.1536,0.1675,0.1753,0.1801,0.1284,0.1284,0.1284,0,0,0.191,0.1859,0.186,0.1797,0.1751,0.1782,0.165,0.1645,0.17,0.1525,0.1579,0.1507,0.1462,0.1518,0.1527,0.1466,0.1676,0.154,0.156,0.1691,0.1763,0.1815,0.1861,0.1287,0.1286,0.1286,0,0,0.2059,0.1995,0.2037,0.2003,0.1931,0.1883,0.1883,0.1795,0.179,0.1794,0.1722,0.1756,0.167,0.1737,0.1749,0.1881,0.1803,0.1793,0.2075,0.2146,0.2194,0.2235,0.2287,0.2331,0.18,0.1801,0.1801,0,0.2149,0.2163,0.2051,0.2097,0.2092,0.1947,0.2008,0.2011,0.1925,0.194,0.1859,0.187,0.1849,0.2006,0.2083,0.1969,0.1933,0.1981,0.2192,0.2233,0.2271,0.2314,0.2359,0.1816,0.1814,0.1813,0.1811,0,0.2307,0.2328,0.2369,0.2363,0.2359,0.2382,0.2345,0.2343,0.2288,0.2269,0.2347,0.2309,0.2318,0.2318,0.2275,0.2507,0.2369,0.2222,0.2151,0.2344,0.2372,0.2414,0.1838,0.1832,0.1828,0.1824,0,0,0.2455,0.2471,0.2478,0.2467,0.2481,0.2458,0.2608,0.2637,0.2666,0.2683,0.275,0.2907,0.2821,0.2838,0.2745,0.2873,0.3131,0.2684,0.268,0.2797,0.3249,0.3186,0.3222,0.2959,0.2969,0.2976,0.3151,0,0.2587,0.2681,0.2685,0.2775,0.2788,0.2755,0.2859,0.2891,0.2876,0.2896,0.2991,0.3002,0.3026,0.2967,0.3149,0.3069,0.3256,0.3098,0.2998,0.3,0.297,0.3278,0.3205,0.3358,0.3191,0.3198,0.3203,0,0.2694,0.2724,0.2831,0.2847,0.2854,0.2915,0.2942,0.3015,0.3105,0.3097,0.3223,0.3173,0.3422,0.3325,0.3585,0.3432,0.3465,0.3456,0.3455,0.3359,0.302,0.3138,0.3439,0.3282,0.3265,0.326,0.3256,0,0.2684,0.2796,0.2848,0.2869,0.2919,0.2963,0.2987,0.3062,0.3084,0.319,0.318,0.3409,0.3424,0.3601,0.3672,0.3589,0.3878,0.3703,0.3737,0.3725,0.3653,0.3621,0.3873,0.4013,0.4012,0.4012,0.4011,0,0.2742,0.2767,0.2823,0.2832,0.2863,0.2917,0.2949,0.3005,0.3078,0.3122,0.3245,0.3307,0.3488,0.362,0.3735,0.3899,0.3944,0.3951,0.3838,0.3742,0.3718,0.3557,0.344,0.4018,0.4017,0.4016,0.4014,0,0.2679,0.2739,0.2762,0.2827,0.2838,0.2834,0.2883,0.29,0.2983,0.3041,0.3076,0.3243,0.3436,0.3613,0.3826,0.3918,0.3971,0.412,0.4004,0.3883,0.3761,0.366,0.373,0.3628,0.4231,0.4232,0.4232,0,0.2646,0.2659,0.2704,0.2704,0.2723,0.2737,0.2748,0.2835,0.2868,0.3012,0.3039,0.3219,0.3365,0.3677,0.3886,0.413,0.3974,0.4162,0.4103,0.3917,0.3718,0.35,0.3393,0.4091,0.4091,0.409,0.4089,0,0.2571,0.2583,0.2595,0.2597,0.2599,0.2608,0.2642,0.2651,0.2773,0.2841,0.2961,0.3082,0.3403,0.3625,0.3917,0.4064,0.394,0.4155,0.4013,0.3782,0.3519,0.3302,0.3767,0.4084,0.4085,0.4085,0.4086,0.4086,0.2486,0.2467,0.2483,0.2472,0.2474,0.2467,0.2452,0.2528,0.2572,0.2683,0.2848,0.3024,0.337,0.3787,0.3891,0.3983,0.3909,0.3935,0.3872,0.3701,0.3527,0.4011,0.4137,0.4138,0.4138,0.4139,0.414,0,0.2374,0.237,0.2363,0.2339,0.2301,0.2347,0.2368,0.2366,0.2406,0.259,0.2714,0.3044,0.3298,0.3561,0.38,0.372,0.3581,0.361,0.332,0.3261,0.377,0.3685,0.3656,0.3656,0.3656,0.3656,0.3656,0.3656,0.231,0.2266,0.2269,0.2174,0.2159,0.2099,0.2096,0.2136,0.2248,0.2407,0.2589,0.2791,0.3083,0.3343,0.3382,0.3368,0.3095,0.2994,0.2908,0.3268,0.3291,0.3314,0.3213,0.3085,0.3084,0.2316,0.231,0.2305]},{"header":{"parameterUnit":"m.s-1","parameterCategory":2,"la1":30.2991,"la2":30.254,"lo1":-89.0895,"lo2":-89.0444,"dy":0.0017,"dx":0.0017,"nx":28,"ny":28,"refTime":"2023-10-10T21:00:00:Z","depth":"0","parameterNumber":3,"parameterNumberName":"V-component_of_CURRENTS"},"data":[0,0,0,0,0,0,0,0,0,0,0,0,0,0,0,0,0,0,0,0,0,0,0,0,0,0,0,0,0,0,0,0,0,0,0,0,0,0,0,0,0,0,0,0,0,0,0,0,0,0,0,0,0,0,0,0,0,0,-0.0005,-0.0004,0,0.0036,0.0037,0.0037,0.0055,0.0054,0.0054,0.0054,0.0071,0.0072,0.0072,0,0,0,0,0,0,0,0,0,0,0,0,0,-0.0027,-0.0027,-0.0005,-0.0004,-0.0004,0.0036,0.0037,0.0037,0.0055,0.0054,0.0054,0.0054,0.0071,0.0071,0.0072,0,0,0,0,0,0,0,0,0,0,0,0,0,-0.0004,-0.0027,-0.0005,0.0009,0.001,0.0036,0.0037,0.0038,0.0055,0.0054,0.0054,0.0054,0.0071,0.0071,0.0072,0.0083,0,0,0.0075,0.0075,0,0,0,0,0,0,0,0,-0.0005,-0.0003,0.0006,0.0008,0.001,0.0039,0.0035,0.0051,0.0055,0.0039,0.0054,0.0054,0.0058,0.006,0.007,0.0084,0.0084,0.0075,0.0076,0.0076,0.0076,0,0,0,0,0,0,0,-0.0007,-0.0004,0.0013,0.0007,0.0009,0.0027,0.003,0.0039,0.0049,0.004,0.0041,0.0044,0.0059,0.0069,0.007,0.0085,0.0075,0.0076,0.0076,0.0077,0.017,0.0172,0,0,0,0,0,0,-0.0016,-0.0006,0.0011,0.0014,0.0,0.0027,0.003,0.0031,0.005,0.0053,0.0045,0.0045,0.0067,0.0069,0.0071,0.0169,0.0076,0.0077,0.0077,0.0168,0.017,0.0172,0,0,0,0,0,0,-0.0016,-0.0015,0.001,0.0004,0.0008,0.0027,0.0028,0.0032,0.0043,0.0053,0.0056,0.0052,0.0067,0.0069,0.0104,0.0166,0.0077,0.0078,0.0166,0.0169,0.0171,0.0311,0,0,0,0,0,0,-0.0017,-0.0015,-0.0007,0.0003,0.0008,0.0041,0.0028,0.0033,0.0045,0.0046,0.006,0.0062,0.0067,0.0103,0.0105,0.0166,0.0079,0.0163,0.0167,0.0171,0.0304,0.0318,0.0331,0,0,0,0,0,-0.0018,0.0032,-0.0007,-0.0005,0.0015,0.0042,0.0047,0.006,0.0045,0.0066,0.008,0.0061,0.0127,0.0105,0.0107,0.017,0.0162,0.0166,0.017,0.0298,0.0316,0.033,0,0,0,0,0,0,0.0082,0.0038,-0.0004,0.0041,0.003,0.0045,0.0081,0.006,0.0086,0.0095,0.0084,0.0089,0.0148,0.0127,0.0103,0.0205,0.0142,0.0147,0.0238,0.0254,0.0268,0.0371,0.008,0,0,0,0,0,0.0085,0.0083,0.0049,0.0089,0.0079,0.0064,0.0077,0.0077,0.0094,0.0105,0.011,0.0127,0.0167,0.0183,0.0207,0.0253,0.0248,0.0293,0.0306,0.0318,0.0402,0.0432,0.0458,0.0187,0.0187,0.0187,0,0,0.0148,0.0116,0.0125,0.0103,0.0098,0.0142,0.0074,0.0109,0.017,0.0103,0.0191,0.0173,0.0189,0.0261,0.0284,0.0252,0.0377,0.0323,0.0334,0.0413,0.044,0.0467,0.0491,0.019,0.0189,0.0189,0,0,0.0281,0.0222,0.0261,0.0248,0.0226,0.0215,0.0217,0.0213,0.0231,0.0282,0.027,0.0313,0.0326,0.039,0.0415,0.0515,0.0447,0.0472,0.0631,0.0657,0.0681,0.0702,0.0669,0.0687,0.0478,0.0479,0.0479,0,0.0365,0.0381,0.0289,0.0326,0.0347,0.025,0.0327,0.0339,0.0355,0.04,0.0334,0.0435,0.0427,0.0576,0.0608,0.0561,0.0517,0.0567,0.0679,0.07,0.0719,0.0681,0.0699,0.0486,0.0485,0.0484,0.0483,0,0.0511,0.0525,0.0559,0.055,0.0565,0.061,0.0589,0.0615,0.0592,0.0607,0.0707,0.0695,0.0766,0.0745,0.0713,0.0851,0.0751,0.069,0.0646,0.0756,0.0706,0.0722,0.0496,0.0494,0.0491,0.049,0,0,0.0681,0.0667,0.067,0.0681,0.0677,0.0698,0.0806,0.0869,0.094,0.0944,0.1059,0.1128,0.1084,0.1114,0.1057,0.1082,0.1143,0.0943,0.094,0.0927,0.1139,0.101,0.1012,0.1064,0.1069,0.1073,0.1027,0,0.0817,0.0904,0.0883,0.0987,0.1014,0.0986,0.1084,0.1133,0.1143,0.1215,0.1239,0.1297,0.123,0.1224,0.1268,0.1164,0.12,0.1159,0.1026,0.1024,0.0909,0.1035,0.1015,0.0968,0.1042,0.1045,0.1047,0,0.093,0.0964,0.1081,0.1135,0.1154,0.1222,0.1316,0.1393,0.1484,0.1496,0.1586,0.1544,0.1634,0.1505,0.1512,0.1462,0.1358,0.1269,0.1263,0.1134,0.0928,0.0882,0.0994,0.0779,0.107,0.1068,0.1067,0,0.098,0.1086,0.1169,0.1189,0.1261,0.1338,0.1389,0.1483,0.1543,0.1654,0.1678,0.178,0.176,0.1729,0.1561,0.1521,0.1497,0.1408,0.1223,0.1206,0.1175,0.115,0.1101,0.1463,0.1463,0.1463,0.1463,0,0.1063,0.112,0.1189,0.1219,0.1337,0.1382,0.1509,0.1579,0.1681,0.1761,0.1803,0.1851,0.1801,0.1754,0.1639,0.148,0.1569,0.1319,0.1228,0.1209,0.1189,0.0985,0.0864,0.1461,0.1461,0.1462,0.1462,0,0.105,0.1104,0.1184,0.1297,0.1337,0.1403,0.1524,0.1611,0.1702,0.1801,0.1828,0.1885,0.1836,0.1758,0.1652,0.1526,0.1283,0.1325,0.1276,0.1184,0.0809,0.0696,0.0631,0.0536,0.1151,0.1148,0.1145,0,0.1038,0.1078,0.1198,0.1248,0.1293,0.1397,0.1474,0.1598,0.1683,0.1808,0.1854,0.1847,0.1867,0.1686,0.1493,0.1323,0.1165,0.113,0.1106,0.0849,0.0657,0.061,0.0532,0.1084,0.1081,0.1079,0.1077,0,0.1014,0.1053,0.1117,0.1221,0.1305,0.1411,0.1529,0.1592,0.1736,0.182,0.1898,0.1925,0.1777,0.1613,0.1365,0.123,0.0972,0.1073,0.0865,0.0688,0.0589,0.0428,0.0991,0.1057,0.1059,0.1061,0.1062,0.1063,0.0978,0.1014,0.1103,0.1202,0.1301,0.1423,0.1503,0.1624,0.1748,0.1899,0.1922,0.2015,0.1783,0.1468,0.1189,0.0717,0.0777,0.0591,0.0496,0.0488,0.0367,0.0855,0.0771,0.0771,0.0771,0.0771,0.0772,0,0.0943,0.1003,0.1087,0.1216,0.1315,0.1388,0.1545,0.1631,0.1756,0.1929,0.202,0.2049,0.1662,0.1289,0.0665,0.0241,0.0157,0.004,0.0005,-0.0032,0.0458,0.0422,0.0191,0.0191,0.0191,0.0191,0.0191,0.0192,0.0928,0.0994,0.1054,0.1202,0.1297,0.1434,0.152,0.1649,0.1801,0.2021,0.2177,0.2306,0.2059,0.0847,-0.0044,-0.0239,-0.0498,-0.0552,-0.0683,-0.0352,-0.0306,-0.0262,-0.0322,-0.0705,-0.0706,-0.1091,-0.1096,-0.1099]}],[{"header":{"parameterUnit":"m.s-1","parameterCategory":2,"la1":30.2991,"la2":30.254,"lo1":-89.0895,"lo2":-89.0444,"dy":0.0017,"dx":0.0017,"nx":28,"ny":28,"refTime":"2023-10-10T21:00:00:Z","depth":"2","parameterNumber":2,"parameterNumberName":"U-component_of_CURRENTS"},"data":[0,0,0,0,0,0,0,0,0,0,0,0,0,0,0,0,0,0,0,0,0,0,0,0,0,0,0,0,0,0,0,0,0,0,0,0,0,0,0,0,0,0,0,0,0,0,0,0,0,0,0,0,0,0,0,0,0,0,0.1923,0.1924,0,0.1995,0.1996,0.1997,0.2026,0.2026,0.2026,0.2026,0.2045,0.2046,0.2046,0,0,0,0,0,0,0,0,0,0,0,0,0,0.1837,0.1838,0.1923,0.1924,0.1925,0.1995,0.1996,0.1997,0.2026,0.2026,0.2026,0.2026,0.2045,0.2046,0.2046,0,0,0,0,0,0,0,0,0,0,0,0,0,0.1888,0.1839,0.1922,0.1948,0.1951,0.1995,0.1996,0.1997,0.2026,0.2026,0.2026,0.2026,0.2045,0.2046,0.2047,0.2056,0,0,0.2049,0.205,0,0,0,0,0,0,0,0,0.1885,0.1891,0.1943,0.1946,0.195,0.2002,0.1973,0.2015,0.2026,0.1997,0.2026,0.2025,0.2026,0.2029,0.2043,0.2057,0.2058,0.205,0.205,0.2051,0.2051,0,0,0,0,0,0,0,0.1881,0.1888,0.1951,0.1944,0.1948,0.1966,0.1972,0.1982,0.201,0.1999,0.2002,0.2011,0.2028,0.2042,0.2043,0.2058,0.205,0.205,0.2051,0.2051,0.2022,0.202,0,0,0,0,0,0,0.1873,0.1885,0.1949,0.1953,0.1917,0.1967,0.1975,0.1985,0.2011,0.2016,0.2011,0.2012,0.204,0.2042,0.2044,0.2009,0.2051,0.2051,0.2052,0.2023,0.2021,0.202,0,0,0,0,0,0,0.187,0.1878,0.1946,0.1921,0.1931,0.1969,0.198,0.1986,0.1987,0.2021,0.2024,0.2003,0.204,0.2043,0.204,0.2012,0.2052,0.2053,0.2025,0.2022,0.2021,0.197,0,0,0,0,0,0,0.1868,0.1876,0.1874,0.192,0.1932,0.1955,0.1981,0.1988,0.1994,0.1995,0.2015,0.2018,0.204,0.2039,0.2041,0.2014,0.2053,0.2026,0.2024,0.2021,0.1973,0.1966,0.196,0,0,0,0,0,0.1864,0.1864,0.1873,0.1881,0.193,0.1954,0.1961,0.1987,0.1993,0.1987,0.2003,0.2017,0.2023,0.2039,0.2042,0.2014,0.2028,0.2024,0.2021,0.1976,0.1968,0.1961,0,0,0,0,0,0,0.182,0.1869,0.188,0.1892,0.1912,0.1959,0.1959,0.1975,0.1985,0.1982,0.201,0.2014,0.2002,0.2012,0.2028,0.1996,0.2023,0.202,0.1987,0.198,0.1973,0.2036,0.2054,0,0,0,0,0,0.181,0.1827,0.1865,0.1872,0.1879,0.1914,0.1924,0.194,0.1961,0.1966,0.198,0.1988,0.1994,0.199,0.2001,0.1985,0.2047,0.1964,0.1958,0.1952,0.2004,0.2049,0.2053,0.201,0.201,0.201,0,0,0.1795,0.1824,0.1832,0.1864,0.1883,0.1897,0.1919,0.1928,0.194,0.1965,0.197,0.1971,0.1987,0.1975,0.1967,0.1977,0.1993,0.1948,0.1944,0.2,0.2047,0.2052,0.2056,0.2008,0.2008,0.2008,0,0,0.1781,0.1795,0.1805,0.1823,0.1848,0.187,0.1866,0.1896,0.1905,0.1908,0.1928,0.1921,0.192,0.1936,0.1942,0.1905,0.1963,0.1881,0.1896,0.1937,0.1943,0.1948,0.2026,0.2039,0.187,0.187,0.187,0,0.1759,0.1784,0.1807,0.1821,0.1839,0.1854,0.1865,0.1877,0.1901,0.1921,0.1897,0.1925,0.1912,0.1936,0.1915,0.1894,0.1947,0.1922,0.1933,0.194,0.1947,0.2026,0.2041,0.1867,0.1868,0.1868,0.1868,0,0.1759,0.1775,0.1778,0.1809,0.1823,0.1831,0.1856,0.1863,0.1864,0.1889,0.1903,0.1895,0.1933,0.1885,0.189,0.192,0.1952,0.1925,0.1961,0.1949,0.2031,0.2048,0.1863,0.1864,0.1865,0.1866,0,0,0.1724,0.1772,0.1773,0.1791,0.1819,0.1834,0.1851,0.1887,0.1924,0.1908,0.1961,0.1929,0.1951,0.1962,0.195,0.1959,0.2016,0.1962,0.1965,0.2058,0.215,0.2081,0.2094,0.1991,0.1993,0.1995,0.2187,0,0.1716,0.1744,0.1776,0.1797,0.1809,0.1844,0.187,0.1903,0.1928,0.1977,0.1975,0.2015,0.1972,0.1992,0.1996,0.2029,0.2061,0.1971,0.2137,0.2143,0.2097,0.211,0.1864,0.2007,0.2204,0.2207,0.2209,0,0.1701,0.173,0.1753,0.1811,0.1822,0.1845,0.1913,0.1942,0.2015,0.2043,0.2093,0.2118,0.2167,0.2107,0.2198,0.2148,0.2169,0.217,0.2176,0.2158,0.2106,0.2051,0.2031,0.2238,0.2236,0.2234,0.2232,0,0.1658,0.171,0.1733,0.1749,0.1815,0.1848,0.189,0.1963,0.2013,0.2115,0.2166,0.2235,0.2282,0.2318,0.2344,0.2287,0.2441,0.236,0.2329,0.2327,0.2179,0.2157,0.2437,0.2437,0.2437,0.2436,0.2435,0,0.1629,0.1646,0.1721,0.1733,0.1784,0.1839,0.1912,0.1969,0.2073,0.2146,0.2214,0.2288,0.2334,0.2418,0.2421,0.2457,0.2522,0.2376,0.2373,0.2149,0.2124,0.237,0.236,0.2443,0.2442,0.244,0.2439,0,0.1566,0.1609,0.1644,0.173,0.176,0.1799,0.1921,0.1977,0.2086,0.2192,0.2237,0.2365,0.249,0.2548,0.263,0.2555,0.2591,0.2586,0.2343,0.2306,0.2435,0.242,0.2574,0.2573,0.2573,0.2572,0.2572,0,0.1536,0.1546,0.1633,0.1664,0.1706,0.1784,0.1837,0.1963,0.2027,0.2228,0.2265,0.2446,0.2527,0.2652,0.2579,0.2614,0.2675,0.2393,0.2209,0.2469,0.2451,0.2436,0.2422,0.2004,0.1999,0.1995,0.1992,0,0.149,0.152,0.1554,0.1617,0.1674,0.174,0.1828,0.188,0.2035,0.2135,0.2278,0.2374,0.2487,0.2399,0.2438,0.24,0.2359,0.2307,0.2668,0.1988,0.194,0.192,0.1923,0.1955,0.1958,0.1961,0.1963,0.1965,0.1459,0.147,0.1519,0.1575,0.163,0.1675,0.1709,0.1801,0.1895,0.1981,0.214,0.2177,0.2182,0.2089,0.2076,0.205,0.217,0.2034,0.2043,0.2058,0.1937,0.1888,0.1875,0.1878,0.1881,0.1883,0.1885,0,0.1429,0.1449,0.1482,0.1535,0.1558,0.162,0.1685,0.1684,0.1749,0.1801,0.1872,0.1682,0.1649,0.1743,0.1608,0.1584,0.1526,0.1563,0.1462,0.1499,0.1531,0.1381,0.1174,0.1172,0.1171,0.1169,0,0,0.1413,0.1422,0.1435,0.1452,0.1494,0.1507,0.1528,0.1516,0.1524,0.1443,0.1408,0.1452,0.1587,0.1304,0.1292,0.124,0.1358,0.1188,0.1746,0.1659,0.169,0.178,0.1587,0,0,0,0,0]},{"header":{"parameterUnit":"m.s-1","parameterCategory":2,"la1":30.2991,"la2":30.254,"lo1":-89.0895,"lo2":-89.0444,"dy":0.0017,"dx":0.0017,"nx":28,"ny":28,"refTime":"2023-10-10T21:00:00:Z","depth":"2","parameterNumber":3,"parameterNumberName":"V-component_of_CURRENTS"},"data":[0,0,0,0,0,0,0,0,0,0,0,0,0,0,0,0,0,0,0,0,0,0,0,0,0,0,0,0,0,0,0,0,0,0,0,0,0,0,0,0,0,0,0,0,0,0,0,0,0,0,0,0,0,0,0,0,0,0,-0.0241,-0.0241,0,-0.0233,-0.0233,-0.0234,-0.0267,-0.0268,-0.0269,-0.027,-0.0342,-0.0343,-0.0344,0,0,0,0,0,0,0,0,0,0,0,0,0,-0.0251,-0.0251,-0.0241,-0.0241,-0.0241,-0.0233,-0.0233,-0.0234,-0.0267,-0.0268,-0.0269,-0.027,-0.0341,-0.0343,-0.0344,0,0,0,0,0,0,0,0,0,0,0,0,0,-0.0247,-0.0251,-0.0241,-0.0255,-0.0256,-0.0233,-0.0233,-0.0234,-0.0267,-0.0268,-0.027,-0.0271,-0.0341,-0.0342,-0.0344,-0.033,0,0,-0.0349,-0.035,0,0,0,0,0,0,0,0,-0.0247,-0.0247,-0.0254,-0.0254,-0.0255,-0.0251,-0.0263,-0.0269,-0.0267,-0.0265,-0.027,-0.0271,-0.0316,-0.032,-0.0318,-0.0334,-0.0337,-0.035,-0.0351,-0.0351,-0.0352,0,0,0,0,0,0,0,-0.0248,-0.0247,-0.024,-0.0253,-0.0254,-0.025,-0.0251,-0.0264,-0.0287,-0.0265,-0.0267,-0.0263,-0.0318,-0.0316,-0.032,-0.0338,-0.035,-0.0351,-0.0352,-0.0353,-0.0363,-0.0362,0,0,0,0,0,0,-0.0245,-0.0248,-0.024,-0.024,-0.0252,-0.0249,-0.025,-0.0253,-0.0285,-0.029,-0.0262,-0.0264,-0.0312,-0.0318,-0.0323,-0.0323,-0.0351,-0.0353,-0.0354,-0.0363,-0.0362,-0.0362,0,0,0,0,0,0,-0.0245,-0.0245,-0.0241,-0.0242,-0.0241,-0.0247,-0.025,-0.0252,-0.0257,-0.0281,-0.0289,-0.0266,-0.0313,-0.032,-0.0332,-0.0326,-0.0354,-0.0355,-0.0364,-0.0363,-0.0362,-0.0315,0,0,0,0,0,0,-0.0246,-0.0245,-0.0249,-0.0242,-0.024,-0.0233,-0.0248,-0.0251,-0.0251,-0.0255,-0.0287,-0.0294,-0.0315,-0.0329,-0.0334,-0.0329,-0.0357,-0.0365,-0.0364,-0.0362,-0.0317,-0.0312,-0.0308,0,0,0,0,0,-0.0246,-0.025,-0.025,-0.0249,-0.0245,-0.0233,-0.0232,-0.0242,-0.025,-0.0252,-0.0267,-0.0294,-0.0324,-0.033,-0.0335,-0.0331,-0.0366,-0.0364,-0.0362,-0.032,-0.0313,-0.0308,0,0,0,0,0,0,-0.0265,-0.0253,-0.0253,-0.0256,-0.0246,-0.0238,-0.0241,-0.024,-0.025,-0.0259,-0.0282,-0.029,-0.0298,-0.0317,-0.0323,-0.0328,-0.0349,-0.0349,-0.0315,-0.0309,-0.0305,-0.0332,-0.0358,0,0,0,0,0,-0.0266,-0.0264,-0.0251,-0.0253,-0.0249,-0.0242,-0.0239,-0.0241,-0.0245,-0.0251,-0.0265,-0.0282,-0.0291,-0.0303,-0.0315,-0.0318,-0.0352,-0.0319,-0.0314,-0.031,-0.0335,-0.0373,-0.0374,-0.0356,-0.0356,-0.0356,0,0,-0.0272,-0.0267,-0.0265,-0.0256,-0.0251,-0.0245,-0.0245,-0.024,-0.024,-0.0257,-0.0264,-0.0266,-0.0287,-0.0288,-0.0294,-0.0307,-0.0325,-0.0307,-0.0304,-0.0332,-0.0371,-0.0373,-0.0375,-0.0355,-0.0355,-0.0355,0,0,-0.0276,-0.0278,-0.0273,-0.0267,-0.0255,-0.025,-0.0247,-0.0235,-0.0238,-0.0233,-0.0243,-0.0243,-0.0256,-0.0267,-0.0276,-0.0253,-0.0296,-0.025,-0.0254,-0.0289,-0.0292,-0.0294,-0.0312,-0.0317,-0.0251,-0.0251,-0.0251,0,-0.0283,-0.0275,-0.027,-0.0266,-0.0257,-0.0252,-0.0242,-0.0245,-0.0237,-0.0234,-0.0236,-0.024,-0.0251,-0.0259,-0.0249,-0.0245,-0.027,-0.0273,-0.0285,-0.0288,-0.0292,-0.031,-0.0317,-0.0249,-0.0249,-0.0249,-0.0249,0,-0.0277,-0.0275,-0.0273,-0.0264,-0.0258,-0.0248,-0.0244,-0.0239,-0.0234,-0.0231,-0.0228,-0.0231,-0.0238,-0.0229,-0.0236,-0.0255,-0.0263,-0.0271,-0.0303,-0.0292,-0.031,-0.0318,-0.0245,-0.0246,-0.0247,-0.0247,0,0,-0.0263,-0.0266,-0.0263,-0.0251,-0.0252,-0.0236,-0.0245,-0.0234,-0.0222,-0.0229,-0.0217,-0.0229,-0.0228,-0.0239,-0.0236,-0.0266,-0.0291,-0.0282,-0.0284,-0.0306,-0.0362,-0.0346,-0.0352,-0.0304,-0.0305,-0.0306,-0.0355,0,-0.0249,-0.0238,-0.0246,-0.0228,-0.0211,-0.0218,-0.0213,-0.0211,-0.0207,-0.0196,-0.0217,-0.0204,-0.0234,-0.0214,-0.0257,-0.027,-0.0313,-0.0277,-0.0367,-0.037,-0.0362,-0.0362,-0.0339,-0.038,-0.0363,-0.0364,-0.0365,0,-0.0216,-0.0214,-0.0195,-0.0181,-0.0174,-0.0169,-0.0145,-0.0142,-0.015,-0.0145,-0.0168,-0.0178,-0.0211,-0.0231,-0.0313,-0.0288,-0.0341,-0.0366,-0.0368,-0.0386,-0.0368,-0.0393,-0.0394,-0.0377,-0.0376,-0.0375,-0.0375,0,-0.0159,-0.0163,-0.0142,-0.0139,-0.0134,-0.0125,-0.0123,-0.0122,-0.0088,-0.0114,-0.0083,-0.0155,-0.0137,-0.0245,-0.0299,-0.0314,-0.0383,-0.0405,-0.045,-0.0448,-0.0466,-0.0464,-0.0499,-0.0499,-0.0499,-0.0499,-0.0499,0,-0.011,-0.0088,-0.0113,-0.0094,-0.0049,-0.0076,-0.0022,-0.0031,-0.0017,0.0048,-0.0049,-0.0003,-0.0141,-0.0185,-0.0291,-0.0377,-0.0384,-0.0466,-0.0469,-0.0444,-0.0439,-0.0474,-0.047,-0.0501,-0.05,-0.05,-0.05,0,-0.0022,-0.0047,-0.001,-0.0018,-0.0011,0.0026,0.0066,0.0113,0.0096,0.0176,0.0177,0.0126,0.0066,-0.0069,-0.0198,-0.0319,-0.0429,-0.0463,-0.0412,-0.041,-0.0482,-0.0475,-0.0548,-0.0548,-0.0548,-0.0548,-0.0548,0,0.0028,0.0053,0.0067,0.01,0.0104,0.0147,0.0197,0.0187,0.0246,0.0281,0.034,0.0291,0.0304,0.0099,-0.0132,-0.0336,-0.037,-0.0462,-0.0506,-0.0496,-0.0492,-0.0485,-0.0478,-0.0499,-0.0499,-0.0499,-0.0498,0,0.0132,0.0135,0.0162,0.0224,0.0273,0.0342,0.0397,0.0464,0.0482,0.0547,0.063,0.0632,0.043,0.0225,-0.0079,-0.022,-0.0438,-0.0462,-0.0471,-0.0483,-0.0453,-0.0447,-0.0442,-0.0496,-0.0496,-0.0496,-0.0496,-0.0496,0.0215,0.026,0.0289,0.0357,0.0424,0.0523,0.0601,0.0687,0.0802,0.0875,0.0853,0.0824,0.0514,0.0125,-0.0096,-0.0358,-0.0383,-0.0507,-0.0507,-0.0508,-0.0486,-0.0457,-0.0496,-0.0496,-0.0496,-0.0497,-0.0497,0,0.0303,0.0344,0.0417,0.0497,0.0599,0.0602,0.0736,0.0833,0.1003,0.1003,0.1058,0.0763,0.0514,0.0201,-0.0185,-0.0424,-0.0441,-0.0481,-0.0471,-0.0473,-0.0475,-0.0451,-0.0453,-0.0453,-0.0453,-0.0453,0,0,0.035,0.0427,0.0459,0.0629,0.0698,0.0837,0.0922,0.1084,0.1131,0.1141,0.1053,0.0896,0.0523,0.0232,-0.0072,-0.0247,-0.0295,-0.0272,-0.0291,-0.0245,-0.0243,-0.0483,-0.0447,0,0,0,0,0]}],[{"header":{"parameterUnit":"m.s-1","parameterCategory":2,"la1":30.2991,"la2":30.254,"lo1":-89.0895,"lo2":-89.0444,"dy":0.0017,"dx":0.0017,"nx":28,"ny":28,"refTime":"2023-10-10T21:00:00:Z","depth":"4","parameterNumber":2,"parameterNumberName":"U-component_of_CURRENTS"},"data":[0,0,0,0,0,0,0,0,0,0,0,0,0,0,0,0,0,0,0,0,0,0,0,0,0,0,0,0,0,0,0,0,0,0,0,0,0,0,0,0,0,0,0,0,0,0,0,0,0,0,0,0,0,0,0,0,0,0,0.0705,0.0706,0,0.0763,0.0764,0.0765,0.0818,0.0819,0.0819,0.082,0.0843,0.0843,0.0843,0,0,0,0,0,0,0,0,0,0,0,0,0,0.066,0.066,0.0705,0.0706,0.0707,0.0763,0.0764,0.0765,0.0818,0.0819,0.0819,0.082,0.0843,0.0843,0.0843,0,0,0,0,0,0,0,0,0,0,0,0,0,0.0695,0.0661,0.0705,0.074,0.0744,0.0763,0.0764,0.0765,0.0818,0.0819,0.082,0.0821,0.0843,0.0843,0.0843,0.0823,0,0,0.0843,0.0843,0,0,0,0,0,0,0,0,0.0693,0.0696,0.0734,0.0738,0.0742,0.0785,0.0757,0.0783,0.0817,0.079,0.082,0.0821,0.0819,0.0821,0.0831,0.0824,0.0825,0.0843,0.0843,0.0843,0.0843,0,0,0,0,0,0,0,0.069,0.0694,0.0728,0.0735,0.074,0.076,0.0765,0.0762,0.0797,0.0792,0.0796,0.0802,0.0821,0.083,0.0831,0.0826,0.0843,0.0843,0.0843,0.0843,0.0851,0.0851,0,0,0,0,0,0,0.0681,0.0692,0.0726,0.073,0.0719,0.076,0.0766,0.077,0.0798,0.0804,0.0801,0.0805,0.083,0.0831,0.0832,0.0881,0.0843,0.0843,0.0843,0.0851,0.0851,0.0851,0,0,0,0,0,0,0.068,0.0684,0.0724,0.0713,0.0719,0.0759,0.0763,0.077,0.0805,0.0806,0.0811,0.0832,0.0831,0.0832,0.0834,0.088,0.0843,0.0843,0.085,0.0851,0.0851,0.0934,0,0,0,0,0,0,0.0678,0.0683,0.0687,0.0712,0.072,0.0746,0.0762,0.0771,0.0806,0.0812,0.0833,0.0835,0.0832,0.0834,0.0834,0.0879,0.0843,0.085,0.085,0.0851,0.0931,0.0937,0.0942,0,0,0,0,0,0.0676,0.0674,0.0687,0.0691,0.0722,0.0746,0.0752,0.0784,0.0807,0.082,0.0827,0.0836,0.0837,0.0834,0.0834,0.088,0.085,0.085,0.0851,0.0928,0.0936,0.0942,0,0,0,0,0,0,0.0644,0.068,0.0694,0.07,0.0727,0.0756,0.0776,0.0796,0.0815,0.0822,0.0829,0.083,0.0863,0.084,0.0836,0.0879,0.0849,0.0849,0.0908,0.0914,0.092,0.0912,0.0843,0,0,0,0,0,0.064,0.0657,0.0688,0.0693,0.0715,0.0751,0.0769,0.0786,0.0803,0.0816,0.0839,0.0847,0.086,0.0861,0.087,0.0876,0.0857,0.0905,0.0911,0.0916,0.0907,0.0919,0.0925,0.0853,0.0853,0.0853,0,0,0.0632,0.065,0.0662,0.069,0.0721,0.0743,0.0766,0.0794,0.0817,0.0811,0.0861,0.0877,0.0867,0.0892,0.0903,0.088,0.0925,0.0917,0.0922,0.0909,0.092,0.0927,0.0934,0.0853,0.0853,0.0853,0,0,0.0618,0.0644,0.0659,0.068,0.0719,0.0745,0.0759,0.0806,0.0841,0.0867,0.0885,0.0906,0.0931,0.0932,0.0932,0.0961,0.0966,0.0988,0.1002,0.1015,0.1021,0.1027,0.1009,0.1013,0.0978,0.0978,0.0978,0,0.0603,0.0622,0.0665,0.0678,0.0699,0.075,0.0767,0.0804,0.0845,0.087,0.0889,0.0943,0.0943,0.0963,0.0984,0.0978,0.0982,0.0985,0.1025,0.103,0.1034,0.1015,0.1017,0.0982,0.0982,0.0981,0.0981,0,0.059,0.0616,0.063,0.0671,0.07,0.072,0.0775,0.0816,0.0871,0.0905,0.0966,0.0975,0.1002,0.1021,0.1014,0.1055,0.1049,0.1047,0.1015,0.1047,0.1024,0.1025,0.0988,0.0986,0.0985,0.0984,0,0,0.0545,0.0607,0.0621,0.0646,0.0696,0.0723,0.0769,0.0827,0.0872,0.0928,0.0985,0.1018,0.1053,0.1053,0.1069,0.1075,0.1113,0.1084,0.1083,0.1077,0.114,0.1094,0.1091,0.1145,0.1146,0.1146,0.1111,0,0.053,0.0559,0.0595,0.064,0.0668,0.072,0.0774,0.0828,0.0886,0.0957,0.099,0.1055,0.106,0.1097,0.1109,0.1135,0.1122,0.1122,0.1097,0.1095,0.1062,0.1092,0.1149,0.1112,0.1112,0.1112,0.1112,0,0.0515,0.0541,0.0575,0.0652,0.0674,0.0708,0.0798,0.0842,0.093,0.0987,0.1039,0.1086,0.1132,0.1129,0.1158,0.1175,0.1154,0.1149,0.1147,0.1073,0.1052,0.107,0.1114,0.1114,0.1114,0.1114,0.1113,0,0.0479,0.0539,0.0572,0.0587,0.0672,0.0709,0.0765,0.0852,0.0922,0.1007,0.1066,0.1124,0.1179,0.118,0.1189,0.1192,0.1205,0.1195,0.111,0.1105,0.112,0.1115,0.117,0.117,0.117,0.117,0.117,0,0.0448,0.048,0.0566,0.0576,0.0647,0.0708,0.0783,0.085,0.0962,0.1025,0.109,0.114,0.1204,0.1225,0.1204,0.1175,0.1213,0.111,0.1099,0.1153,0.1152,0.1121,0.1116,0.1169,0.1169,0.1169,0.117,0,0.0408,0.0455,0.0494,0.0586,0.0629,0.0678,0.081,0.0856,0.0972,0.1051,0.1092,0.1195,0.1217,0.1238,0.1237,0.1194,0.116,0.1118,0.1166,0.1159,0.1039,0.1038,0.1023,0.1022,0.102,0.1019,0.1018,0,0.0385,0.04,0.0495,0.0531,0.0576,0.0662,0.0719,0.0854,0.0899,0.1052,0.1077,0.1161,0.1193,0.116,0.1184,0.1139,0.111,0.1079,0.106,0.1036,0.1027,0.1029,0.103,0.1016,0.1015,0.1015,0.1014,0,0.0334,0.0372,0.0407,0.0485,0.0545,0.0612,0.0697,0.0743,0.0869,0.0987,0.1048,0.1077,0.1096,0.1109,0.1097,0.1052,0.111,0.1062,0.1064,0.1047,0.1026,0.1019,0.1022,0.1009,0.101,0.101,0.1011,0,0.03,0.0312,0.0365,0.0433,0.0504,0.0547,0.0595,0.066,0.0748,0.0918,0.092,0.0992,0.1075,0.106,0.1038,0.1023,0.0991,0.0942,0.095,0.0956,0.0955,0.092,0.086,0,0,0,0,0,0.0272,0.0277,0.0316,0.0379,0.0443,0.0495,0.0582,0.0625,0.0735,0.0755,0.0858,0.0865,0.0896,0.0936,0.09,0.098,0.0975,0.0933,0.0917,0.0981,0.0987,0.0994,0,0,0,0,0,0,0.0247,0.0274,0.0288,0.0325,0.0362,0.0426,0.0473,0.0539,0.0564,0.0683,0.0701,0.081,0.084,0.0907,0.0885,0.0895,0.0863,0.0992,0.099,0.0977,0.0983,0.0987,0.0997,0,0,0,0,0]},{"header":{"parameterUnit":"m.s-1","parameterCategory":2,"la1":30.2991,"la2":30.254,"lo1":-89.0895,"lo2":-89.0444,"dy":0.0017,"dx":0.0017,"nx":28,"ny":28,"refTime":"2023-10-10T21:00:00:Z","depth":"4","parameterNumber":3,"parameterNumberName":"V-component_of_CURRENTS"},"data":[0,0,0,0,0,0,0,0,0,0,0,0,0,0,0,0,0,0,0,0,0,0,0,0,0,0,0,0,0,0,0,0,0,0,0,0,0,0,0,0,0,0,0,0,0,0,0,0,0,0,0,0,0,0,0,0,0,0,0.023,0.023,0,0.0206,0.0206,0.0205,0.0205,0.0205,0.0206,0.0207,0.0193,0.0192,0.0191,0,0,0,0,0,0,0,0,0,0,0,0,0,0.0225,0.0225,0.023,0.023,0.023,0.0206,0.0206,0.0205,0.0205,0.0205,0.0206,0.0207,0.0193,0.0192,0.0191,0,0,0,0,0,0,0,0,0,0,0,0,0,0.0214,0.0225,0.023,0.023,0.0229,0.0206,0.0206,0.0205,0.0205,0.0205,0.0206,0.0207,0.0194,0.0192,0.0191,0.0165,0,0,0.0187,0.0186,0,0,0,0,0,0,0,0,0.0215,0.0214,0.023,0.023,0.0229,0.0212,0.0199,0.0193,0.0204,0.0211,0.0207,0.0208,0.0202,0.02,0.0189,0.0165,0.0164,0.0187,0.0186,0.0185,0.0185,0,0,0,0,0,0,0,0.0215,0.0215,0.0218,0.023,0.0229,0.0213,0.0212,0.0197,0.02,0.021,0.0211,0.0213,0.0201,0.019,0.0189,0.0164,0.0187,0.0186,0.0185,0.0184,0.0117,0.0116,0,0,0,0,0,0,0.0226,0.0216,0.0219,0.0217,0.0227,0.0213,0.0212,0.0214,0.02,0.0199,0.0212,0.0213,0.0192,0.019,0.0188,0.015,0.0185,0.0184,0.0183,0.0118,0.0117,0.0116,0,0,0,0,0,0,0.0226,0.0227,0.022,0.0218,0.0217,0.0213,0.0215,0.0213,0.0208,0.0201,0.02,0.021,0.0193,0.019,0.018,0.015,0.0183,0.0182,0.0119,0.0117,0.0116,0.0079,0,0,0,0,0,0,0.0226,0.0227,0.0229,0.0219,0.0217,0.0204,0.0214,0.0212,0.0209,0.021,0.0199,0.0198,0.0193,0.0182,0.0178,0.0149,0.0181,0.012,0.0118,0.0117,0.0081,0.0076,0.0072,0,0,0,0,0,0.0226,0.0217,0.0229,0.0229,0.0221,0.0204,0.02,0.0198,0.0209,0.0198,0.0198,0.0199,0.0167,0.018,0.0176,0.0146,0.0121,0.0119,0.0117,0.0083,0.0077,0.0072,0,0,0,0,0,0,0.0198,0.0216,0.0229,0.0223,0.0218,0.0205,0.0193,0.0199,0.0189,0.0193,0.0191,0.019,0.0163,0.0164,0.0179,0.0121,0.0142,0.0139,0.0118,0.0112,0.0107,0.0117,0.018,0,0,0,0,0,0.02,0.0207,0.0213,0.0205,0.0205,0.0203,0.0196,0.0198,0.0191,0.0187,0.018,0.017,0.0147,0.0142,0.0122,0.0099,0.01,0.0075,0.007,0.0066,0.0072,0.004,0.0033,0.0108,0.0108,0.0108,0,0,0.0186,0.0196,0.02,0.0202,0.0197,0.0191,0.0199,0.0188,0.018,0.0187,0.0168,0.0152,0.0137,0.0104,0.0092,0.0105,0.0046,0.0063,0.006,0.0068,0.0037,0.003,0.0023,0.0107,0.0107,0.0107,0,0,0.0165,0.0173,0.0179,0.0177,0.0181,0.0176,0.0177,0.0169,0.0163,0.0146,0.0141,0.0117,0.0091,0.0069,0.0056,0.0017,0.0019,0.0005,-0.0007,-0.0039,-0.0045,-0.0051,-0.0053,-0.0059,0.0007,0.0007,0.0007,0,0.0154,0.0168,0.0171,0.0172,0.0177,0.0173,0.0176,0.0155,0.0144,0.014,0.0138,0.0089,0.0071,0.0033,0.0012,0.0005,0.0,0.0014,-0.0045,-0.0051,-0.0056,-0.0057,-0.0062,0.0005,0.0005,0.0005,0.0006,0,0.015,0.0155,0.015,0.0164,0.0156,0.0155,0.0143,0.013,0.0125,0.0112,0.0076,0.0046,0.0025,-0.0003,-0.001,-0.006,-0.0047,-0.0051,-0.003,-0.0065,-0.0064,-0.0069,0.0002,0.0003,0.0003,0.0004,0,0,0.0155,0.0156,0.0157,0.0172,0.0164,0.0163,0.0136,0.0126,0.0124,0.0082,0.0074,0.0005,-0.0006,-0.0021,-0.0043,-0.0079,-0.0129,-0.0082,-0.0083,-0.0081,-0.018,-0.019,-0.0195,-0.0147,-0.0149,-0.015,-0.0162,0,0.0165,0.0177,0.017,0.0176,0.0187,0.0174,0.0155,0.0136,0.0116,0.0097,0.0048,0.0023,-0.0016,-0.0024,-0.0074,-0.0114,-0.0145,-0.0124,-0.0147,-0.0147,-0.015,-0.0203,-0.0154,-0.0166,-0.0167,-0.0168,-0.0169,0,0.0183,0.0194,0.0206,0.0214,0.0217,0.0211,0.0209,0.0191,0.0147,0.013,0.0086,0.0055,-0.001,-0.0031,-0.0126,-0.0111,-0.0147,-0.018,-0.0181,-0.0179,-0.0167,-0.0125,-0.0177,-0.0177,-0.0176,-0.0176,-0.0175,0,0.0217,0.0224,0.0243,0.0246,0.024,0.0243,0.0239,0.0206,0.0201,0.0156,0.0149,0.0069,0.0039,-0.0037,-0.0125,-0.0122,-0.0218,-0.0216,-0.0254,-0.0253,-0.022,-0.0214,-0.0275,-0.0275,-0.0275,-0.0275,-0.0275,0,0.0243,0.0256,0.0264,0.0276,0.0297,0.0283,0.0292,0.0272,0.025,0.0238,0.0173,0.0147,0.0032,-0.0038,-0.0113,-0.0208,-0.0211,-0.0264,-0.0269,-0.0234,-0.023,-0.0223,-0.0217,-0.0276,-0.0276,-0.0276,-0.0275,0,0.0257,0.0265,0.0289,0.0303,0.0311,0.0324,0.0331,0.0333,0.0309,0.0295,0.0284,0.0202,0.0099,-0.0007,-0.0126,-0.0185,-0.0273,-0.0298,-0.0241,-0.0241,-0.028,-0.0275,-0.0332,-0.0332,-0.0333,-0.0334,-0.0334,0,0.0257,0.0274,0.031,0.0326,0.0331,0.0352,0.0362,0.0358,0.036,0.0322,0.0317,0.0229,0.0156,-0.0012,-0.0129,-0.0266,-0.0288,-0.0314,-0.0318,-0.0292,-0.0291,-0.0286,-0.028,-0.0335,-0.0335,-0.0335,-0.0335,0,0.0257,0.0274,0.0292,0.0332,0.0356,0.0381,0.0402,0.041,0.0396,0.039,0.0332,0.0238,0.0126,-0.0015,-0.0128,-0.0227,-0.0294,-0.032,-0.032,-0.0324,-0.0297,-0.0294,-0.0288,-0.0338,-0.0337,-0.0337,-0.0337,0,0.025,0.0262,0.0294,0.0324,0.036,0.0387,0.0402,0.0403,0.0407,0.0376,0.0355,0.0232,0.0165,0.0006,-0.01,-0.0205,-0.0223,-0.0241,-0.0244,-0.0243,-0.0227,-0.018,-0.0198,0,0,0,0,0,0.0239,0.0254,0.0282,0.0314,0.0351,0.0376,0.0413,0.0424,0.0428,0.0392,0.0375,0.0268,0.0099,0.0027,-0.008,-0.0112,-0.0243,-0.0239,-0.0266,-0.0349,-0.0347,-0.0346,0,0,0,0,0,0,0.0231,0.0257,0.0273,0.03,0.032,0.0361,0.0387,0.0394,0.0377,0.0367,0.0278,0.0248,0.0082,0.0151,-0.0084,-0.0114,-0.0143,-0.0313,-0.0315,-0.0351,-0.0348,-0.0346,-0.0345,0,0,0,0,0]}]]